Home   Weather   Peristeri   Past weeks
Flag for Greece

Past Weather in Peristeri, Greece — Yesterday and Last 2 Weeks

Now
66 °F

Passing clouds.


Feels Like: 66 °F
Forecast: 79 / 60 °F
Wind: 8 mph from North

Location: Elefsis Airport

Current Time: Sep 22, 2019 at 9:31:49 am

Latest Report: Sep 22, 2019 at 8:50 am


Visibility: N/A

Pressure: 30.18 "Hg

Humidity: 60%

Dew Point: 52 °F

Location of PeristeriLocation

Past Weather in Peristeri — Graph

°F

Peristeri Temperature Yesterday

Maximum temperature yesterday: 77 °F (at 11:50 am)
Minimum temperature yesterday: 66 °F (at 12:20 am)
Average temperature yesterday: 70 °F

High & Low Weather Summary for the Past Weeks

 TemperatureHumidityPressure
High91 °F (Sep 8, 3:50 pm)88% (Sep 13, 7:50 am)30.18 "Hg (Sep 13, 7:50 am)
Low61 °F (Sep 22, 4:50 am)22% (Sep 14, 4:20 pm)29.83 "Hg (Sep 9, 5:50 pm)
Average77 °F46%30.00 "Hg
* Reported Sep 7 8:20 am — Sep 22 8:20 am, Peristeri. Weather by CustomWeather, © 2019

Note: Actual official high and low records may vary slightly from our data, if they occured in-between our weather recording intervals... More about our weather records

Advertising

Peristeri Weather History for the Previous 24 Hours

Scroll right to see more
 ConditionsComfort  
Time TempWeatherWind HumidityBarometerVisibility
8:20 am
Sun, Sep 22
64 °FPassing clouds.3 mph64%30.15 "HgN/A
7:50 am63 °FPassing clouds.No wind64%30.18 "HgN/A
7:20 am61 °FSunny.No wind68%30.18 "Hg10 mi
6:50 am63 °FClear.No wind64%30.18 "Hg10 mi
6:20 am64 °FClear.No wind60%30.15 "Hg10 mi
5:50 am61 °FClear.No wind63%30.18 "Hg10 mi
5:20 am61 °FClear.No wind59%30.18 "Hg10 mi
4:50 am61 °FClear.No wind59%30.18 "Hg10 mi
4:20 am63 °FClear.No wind56%30.18 "Hg10 mi
3:50 am64 °FClear.No wind52%30.18 "Hg10 mi
3:20 am64 °FClear.No wind52%30.18 "Hg10 mi
2:50 am64 °FClear.No wind49%30.18 "Hg10 mi
2:20 am64 °FClear.No wind49%30.18 "Hg10 mi
1:50 am64 °FClear.No wind49%30.18 "Hg10 mi
1:20 am64 °FClear.No wind49%30.18 "Hg10 mi
12:50 am64 °FClear.No wind49%30.18 "Hg10 mi
12:20 am64 °FClear.No wind52%30.18 "Hg10 mi
11:50 pm
Sat, Sep 21
66 °FClear.5 mph49%30.18 "Hg10 mi
11:20 pm66 °FClear.5 mph46%30.18 "Hg10 mi
10:50 pm66 °FClear.No wind46%30.18 "Hg10 mi
10:20 pm68 °FClear.5 mph43%30.18 "Hg10 mi
9:50 pm68 °FClear.7 mph43%30.18 "Hg10 mi
9:20 pm68 °FClear.9 mph43%30.18 "Hg10 mi
8:50 pm68 °FClear.9 mph43%30.18 "Hg10 mi
8:20 pm68 °FClear.12 mph43%30.18 "Hg10 mi
7:50 pm70 °FClear.9 mph40%30.18 "Hg10 mi
7:20 pm70 °FSunny.9 mph40%30.18 "Hg10 mi
6:50 pm72 °FSunny.9 mph38%30.15 "Hg10 mi
6:20 pm73 °FPassing clouds.10 mph36%30.15 "HgN/A
5:50 pm73 °FPassing clouds.10 mph36%30.15 "HgN/A
5:20 pm75 °FPassing clouds.13 mph31%30.15 "HgN/A
4:50 pm75 °FPassing clouds.12 mph31%30.15 "HgN/A
4:20 pm77 °FPassing clouds.10 mph30%30.15 "HgN/A
3:50 pm77 °FPassing clouds.12 mph30%30.15 "HgN/A
3:20 pm77 °FPassing clouds.13 mph30%30.15 "HgN/A
2:50 pm77 °FPassing clouds.12 mph30%30.18 "HgN/A
2:20 pm77 °FPassing clouds.12 mph30%30.18 "HgN/A
1:50 pm75 °FPassing clouds.12 mph34%30.18 "HgN/A
1:20 pm77 °FScattered clouds.12 mph32%30.18 "HgN/A
12:50 pm75 °FScattered clouds.12 mph36%30.18 "HgN/A
12:20 pm75 °FScattered clouds.10 mph36%30.18 "HgN/A
11:50 am77 °FScattered clouds.12 mph34%30.18 "HgN/A
11:20 am75 °FScattered clouds.10 mph36%30.18 "HgN/A
10:50 am73 °FScattered clouds.9 mph41%30.18 "HgN/A
10:20 am73 °FScattered clouds.10 mph41%30.18 "HgN/A
9:50 am72 °FScattered clouds.9 mph44%30.18 "HgN/A
9:20 am72 °FScattered clouds.7 mph47%30.15 "HgN/A
Weather by CustomWeather, © 2019

See weather overview